Location: *
(58.4167°N, 22.5000°E)
Time: 14:39:48
(UTC+00:00)

SPOT 5 - Pass Details

Date: 22 September 2019
Orbit: 624 x 814 km, 98.3° (Epoch: 18 October)

Event Time Altitude Azimuth Distance (km) Brightness Sun altitude
Exits shadow 21:05:28 28° 264° (W) 1,380 4.4 -29.5°
Maximum altitude 21:05:41 28° 269° (W) 1,379 4.4 -29.5°
Drops below altitude 10° 21:10:05 10° 328° (NNW) 2,328 6.4 -29.7°
Sets 21:12:47 0° 340° (NNW) 3,288 7.5 -29.8°
